Ballenas Island, British Columbia

1:27 PM PST on November 23, 2017 (GMT -0800)
Ballenas Island

Weather History for CWGB - May, 2013

Change the Weather History Date:

Monday, May 6, 2013

  Actual Average Record
Temperature  
Mean Temperature 62 °F -  
Max Temperature 68 °F - - ()
Min Temperature 57 °F - - ()
Degree Days  
Heating Degree Days 2    
Growing Degree Days 12 (Base 50)    
Moisture  
Dew Point 50 °F    
Average Humidity 64    
Maximum Humidity 78    
Minimum Humidity 42    
Precipitation  
Precipitation 0.00 in - - ()
Sea Level Pressure  
Sea Level Pressure 29.80 in    
Wind  
Wind Speed 9 mph ()    
Max Wind Speed 18 mph    
Max Gust Speed -    
T = Trace of Precipitation, MM = Missing Value Source: Averaged Metar Reports

Daily Weather History Graph

Daily Weather History Graph

Search for Another Location

Airport or City:

Trip Planner

Search our weather history database for the weather conditions in past years. The results will help you decide how hot, cold, wet, or windy it might be!

Date:

Astronomy

May. 06, 2013 Rise Set
Actual Time 5:45 AM PDT 8:41 PM PDT
Civil Twilight 5:09 AM PDT 9:18 PM PDT
Nautical Twilight 4:21 AM PDT 10:06 PM PDT
Astronomical Twilight 3:23 AM PDT 11:05 PM PDT
Moon 4:08 AM PDT (5/6) 5:33 PM PDT (5/6)
Length of Visible Light 16h 09m
Length of Day
14h 55m
Waning Crescent, 10% of the Moon is Illuminated
May 6
Waning Crescent
May 9
New
May 17
First Quarter
May 24
Full
May 31
Last Quarter

Hourly Weather History & Observations

Time (PDT) Temp. Dew Point Humidity Pressure Visibility Wind Dir Wind Speed Gust Speed Precip Events Conditions
12:00 AM 59.0 °F 52.0 °F 78% 29.78 in - WNW 8.1 mph - N/A   Unknown
1:00 AM 60.8 °F 51.3 °F 71% 29.79 in - West 9.2 mph - N/A   Unknown
2:00 AM 60.4 °F 49.1 °F 66% 29.81 in - WSW 11.5 mph - N/A   Unknown
3:00 AM 61.2 °F 46.2 °F 58% 29.82 in - WSW 9.2 mph - N/A   Unknown
4:00 AM 60.3 °F 45.7 °F 59% 29.82 in - WSW 8.1 mph - N/A   Unknown
5:00 AM 60 °F 46 °F 50% 29.83 in - WSW 10.4 mph - -  
5:00 AM 60.3 °F 46.0 °F 59% 29.83 in - WSW 10.4 mph - N/A   Unknown
6:00 AM 57.4 °F 47.5 °F 70% 29.83 in - WSW 6.9 mph - N/A   Unknown
7:00 AM 57.4 °F 49.3 °F 74% 29.84 in - West 5.8 mph - N/A   Unknown
8:00 AM 57.7 °F 50.2 °F 76% 29.84 in - WSW 4.6 mph - N/A   Unknown
9:00 AM 58.1 °F 51.4 °F 78% 29.85 in - West 6.9 mph - N/A   Unknown
10:00 AM 59.0 °F 51.1 °F 75% 29.84 in - West 11.5 mph - N/A   Unknown
11:00 AM 59 °F 52 °F 69% 29.84 in - West 11.5 mph - -  
11:00 AM 59.4 °F 51.6 °F 76% 29.84 in - West 11.5 mph - N/A   Unknown
12:00 PM 61.7 °F 52.5 °F 72% 29.83 in - West 8.1 mph - N/A   Unknown
1:00 PM 63.0 °F 53.4 °F 71% 29.82 in - WSW 6.9 mph - N/A   Unknown
2:00 PM 63.7 °F 52.5 °F 67% 29.81 in - West 8.1 mph - N/A   Unknown
3:00 PM 66.2 °F 52.2 °F 61% 29.79 in - WSW 5.8 mph - N/A   Unknown
4:00 PM 67.5 °F 50.5 °F 55% 29.77 in - WSW 8.1 mph - N/A   Unknown
5:00 PM 67 °F 49 °F 42% 29.75 in - West 10.4 mph - -  
5:00 PM 67.1 °F 49.1 °F 52% 29.75 in - West 10.4 mph - N/A   Unknown
6:00 PM 65.7 °F 50.4 °F 58% 29.74 in - West 15.0 mph - N/A   Unknown
7:00 PM 65.7 °F 50.2 °F 57% 29.73 in - West 11.5 mph - N/A   Unknown
8:00 PM 68.7 °F 45.9 °F 44% 29.72 in - West 15.0 mph - N/A   Unknown
10:00 PM 65.8 °F 52.9 °F 63% 29.75 in - WSW 16.1 mph - N/A   Unknown
11:00 PM 64 °F 54 °F 61% 29.76 in - WSW 18.4 mph - -  
11:00 PM 63.5 °F 54.0 °F 71% 29.76 in - WSW 18.4 mph - N/A   Unknown